Regional Weather Roundup
Issued by NWS Wakefield, VA

Home | Current Version | Previous Version | Text Only | Print | Product List | Glossary On
Versions: 1 2 3 4 5 6 7 8 9 10 11 12 13 14 15 16 17 18 19 20 21 22 23 24 25 26 27 28 29 30 31 32 33 34 35 36 37 38 39 40 41 42 43 44 45 46 47 48 49 50
000
ASUS41 KAKQ 240715
RWRAKQ

REGIONAL WEATHER ROUNDUP
NATIONAL WEATHER SERVICE WAKEFIELD VA
300 AM EDT FRI MAR 24 2017

Note: "fair" indicates few or no clouds below 12,000 feet with no
significant weather and/or obstructions to visibility. * = Denotes
station may not report precipitation (e.g., rain,snow,etc.),
thunder or fog.

VAZ042-051-052>054-056-240800-
NORTHERN VIRGINIA

CITY           SKY/WX    TMP DP  RH WIND       PRES   REMARKS
WASH NATIONAL  CLEAR     37  23  56 S9        30.52F
DULLES         PTCLDY    34  18  52 S7        30.49F
FORT BELVOIR   CLEAR     34  20  56 SE6       30.51F
QUANTICO       CLEAR     39  28  64 S15       30.53F
FREDERICKSBRG* CLEAR     35  26  68 S8        30.52F
STAFFORD*      CLEAR     32  23  68 S5        30.56S
WARRENTON      CLEAR     32  17  53 CALM      30.49F
CULPEPER*      CLEAR     30  23  74 CALM      30.51S
MANASSAS*      CLEAR     33  20  58 S3        30.51F
LEESBURG*      CLOUDY    36  27  69 S5        30.49F
WINCHESTER     CLOUDY    34  18  51 S5        30.41F
FRONT ROYAL*     N/A    N/A N/A N/A MISG        N/A
LURAY*         SUNNY     41  23  48 SW12      30.42F
$$

VAZ048-049-060>072-079>083-240800-
CENTRAL AND SOUTH CENTRAL VIRGINIA

CITY           SKY/WX    TMP DP  RH WIND       PRES   REMARKS
RICHMOND       CLEAR     33  25  72 SE5       30.53F
CHESTERFIELD*  FAIR      34  12  40 S9        30.54F
PETERSBURG*    CLEAR     31  25  78 CALM      30.55F
HANOVER        CLEAR     34  23  64 S8        30.54F
TAPPAHANNOCK*  CLEAR     33  15  48 S6        30.54F
QUINTON*       FAIR      33  24  68 S7        30.54F
CHARLOTTSVILLE CLEAR     36  20  52 S9        30.48F
GORDONSVILLE*  SUNNY     30  24  77 CALM      30.50S
ORANGE*        CLEAR     32  21  64 CALM      30.51F
LOUISA*        CLEAR     37  25  60 S3        30.49F
BUMPASS*       FAIR      34  22  61 CALM      30.51F
FARMVILLE*     CLEAR     36  26  66 S5        30.50S
CREWE*         FAIR      34  26  74 S3        30.52S
FORT PICKETT*  FAIR      33  23  65 S7        30.53S
CHASE CITY*    FAIR      35  24  65 SE3       30.52S
CLARKSVILLE*   FAIR      37  28  70 SE3       30.52F
SOUTH HILL*    CLEAR     33  26  76 S3        30.59F
LAWRENCEVILLE* FAIR      32  26  76 CALM      30.54F
EMPORIA*       PTCLDY    32  28  86 SE3       30.57F
$$

VAZ088>098-240800-
SOUTHEAST VIRGINIA

CITY           SKY/WX    TMP DP  RH WIND       PRES   REMARKS
NORFOLK        CLEAR     32  23  69 S5        30.57S
VIRGINIA BEACH CLEAR     30  22  72 CALM      30.57S
NORFOLK NAVAL  CLEAR     35  24  64 S7        30.57F
WEST POINT*    PTCLDY    35  26  70 SE3       30.57F
SALUDA*        FAIR      33  27  76 S3        30.55F
NEWPORT NEWS   CLEAR     36  24  62 S8        30.56F
LANGLEY AFB    CLEAR     37  26  65 S8        30.55F
FORT EUSTIS    CLEAR     36  27  69 S7        30.53F
WILLIAMSBURG*  CLEAR     37  28  70 S5        30.56F
HR EXEC AP*    FAIR      25  19  80 CALM      30.56F
FRANKLIN*      PTCLDY    32  25  76 SE5       30.57F
US460-WAKEFLD  PTCLDY    32  25  75 CALM      30.55F
$$

VAZ020-022-025-037-045-240800-
WEST CENTRAL AND SOUTHWEST VIRGINIA

CITY           SKY/WX    TMP DP  RH WIND       PRES   REMARKS
STAUNTON*      CLOUDY    34  19  55 CALM      30.45F
WAYNESBORO*    SUNNY     38  20  48 S9        30.43F
HOT SPRINGS VA CLOUDY    34  12  40 S13G18    30.37F WCI  25
LYNCHBURG      CLEAR     34  21  59 CALM      30.50S
DANVILLE       CLEAR     39  24  55 CALM      30.51S
SOUTH BOSTON*  FAIR      38  21  51 CALM      30.52S
MARTINSVILLE   CLEAR     29  22  76 CALM      30.51S
ROANOKE        CLOUDY    38  21  50 CALM      30.48S
BLACKSBURG     CLOUDY    39  23  52 S5        30.46S
DUBLIN*        CLOUDY    34  26  71 CALM      30.43F
MARION*        CLOUDY    38  26  63 NE3       30.42S
HILLSVILLE*    CLOUDY    40  23  49 S8        30.41S
RICHLANDS*     CLOUDY    47  27  45 CALM      30.34S
WISE*          CLOUDY    50  27  40 S7        30.34S
ABINGDON*      CLOUDY    46  31  54 CALM      30.37S
$$

MDZ021>025-VAZ099-100-240800-
SOUTHERN MARYLAND AND THE DELMARVA PENINSULA

CITY           SKY/WX    TMP DP  RH WIND       PRES   REMARKS
PATUXENT RIVER CLEAR     36  31  82 S6        30.53F
BAY BRIDGE APT CLEAR     37  28  70 S10       30.51F
LEONARDTOWN    CLEAR     36  28  75 S6        30.54F
DOVER          CLEAR     30  25  84 S9        30.53F
GEORGETOWN     PTCLDY    30  24  78 S6        30.56S
EASTON         CLEAR     34  28  77 S7        30.56F
CAMBRIDGE      CLEAR     32  28  86 SE7       30.53F
SALISBURY      CLEAR     27  23  85 SE3       30.56R
OCEAN CITY     CLEAR     37  28  70 SW7       30.57R
WALLOPS ISLAND CLEAR     36  26  67 S12       30.58R
ACCOMACK*      CLEAR     34  24  66 SE9       30.56S
$$

NCZ012>017-030>032-240800-
NORTH CENTRAL AND EASTERN NORTH CAROLINA

CITY           SKY/WX    TMP DP  RH WIND       PRES   REMARKS
ROANOKE RAPIDS FAIR      32  28  86 CALM      30.56S
RALEIGH        PTCLDY    40  27  59 S6        30.54R
ELIZABETH CITY CLEAR     34  28  79 SE5       30.58F
AHOSKIE*         N/A     31  27  86 CALM      30.57S
EDENTON*       CLEAR     38  32  78 CALM      30.58S
CURRITUCK*     CLEAR     33  31  90 CALM      30.58F
KILL DEVIL HLS NOT AVBL
MANTEO         CLEAR     37  30  78 CALM      30.57F
CAPE HATTERAS  CLEAR     44  36  73 NE9       30.55F
TARBORO*       NOT AVBL
GOLDSBORO      CLEAR     36  35  96 CALM      30.54S
WASHINGTON     CLEAR     31  28  86 E3        30.57F
GREENVILLE     CLEAR     34  30  86 CALM      30.56S
NEW BERN       CLEAR     37  33  85 NE6       30.56F
WILMINGTON     PTCLDY    36  33  89 NE3       30.51F
$$

VAZ048-240800-
ELSEWHERE

CITY           SKY/WX    TMP DP  RH WIND       PRES   REMARKS
HARRISBURG PA  MOCLDY    36  23  59 S7        30.45F
BALTIMORE      PTCLDY    33  16  49 CALM      30.51F
ANNAPOLIS      CLEAR     40  29  64 S9        30.51F
ANDREWS AFB    CLEAR     32  20  60 S9        30.49F
PHILADELPHIA   PTCLDY    33  26  75 S6        30.53F
HENDERSON NC   CLEAR     35  25  66 S5        30.53F
GREENSBORO     CLEAR     42  26  53 S9        30.48S
ROCKY MOUNT    CLEAR     34  32  92 CALM      30.56S
$$

VAZ100-240800-
MARINE

STATION/POSITION TIME  TEMP    WIND        PRES    WAVE   SWELL
                       AIR SEA DIR/SP/G            HT/PER HT/PER
                 (UTC) (F)     (DEG/KT/KT) (MB)    (FT/S) (FT/S)
CAPE MAY NJ      0648   37 41  190/  6/  9 1034.6R
LEWES DE         0642   33 42  180/  4/  6 1034.9R
OCEAN-CITY-INLET 0642   40 44  220/ 12/ 14 1036.0R
WACHAPREAGUE VA  0648   40 47  170/  9/ 11 1035.0R
THOMAS POINT MD  0700   41 44  190/ 21/ 23   N/A
GOOSES REEF MD   0700   40 43  180/ 14/ 17 1033.8    2/ 3
COVE POINT MD    0648   38     200/ 12/ 15 1034.3F
SOLOMONS ISLAND  0642   39 44  160/  5/  7   N/A
BISHOPS HEAD MD  0648   40 44  170/ 14/ 17 1034.6F
PINEY POINT MD   0648          180/ 12/ 14   N/A
POTOMAC MD       0700   40 45  210/  8/ 10 1033.4    2/ 3
CAMBRIDGE MD     0648   34 44  140/  5/  9 1033.4F
LEWISETTA VA     0648   38 46  200/  9/ 11 1033.9F
RAPPAHANNOCK LGT 0648          160/ 12/ 12 1035.4S
STINGRAY PT      0650   42     190/ 14/ 17 1034.7S
YORK RVR RNG VA  0648   40     180/ 14/ 16 1034.1F
YORKTOWN VA      0648   36 47  180/  6/  7 1034.5F
JAMESTOWN VA     0700   36 50  140/ 10/ 14   N/A     0
DOMINION TERM VA 0648   38     150/  9/ 11 1034.9F
KIPTOPEKE VA     0648      46  160/ 11/ 13   N/A
CHES BAY BRIDGE  0648   40 47  170/ 10/ 13 1035.1R
CAPE HENRY VA    0648   39     170/  5/  7   N/A
WILLOUBY STN VA  0648   38     160/  7/  9 1035.9S
S CRANEY ISL VA  0648   39     170/  9/ 11 1035.0F
CAPE HENRY BUOY  0642      45                N/A     3/ 7
CAPE CHARLES BUO 0651      45                N/A     3/ 6
OFFSHORE WE BUOY 0651      45                N/A     3/ 7
64NM E OF VA BCH 0650   44 49  120/  8/ 10 1035.0F   3/ 7   3/ 7
DUCK PIER NC     0648   42 48  100/  8/ 10 1034.8F
44100 DUCK FRF   0635      47                N/A     4/ 7   2/11
44056 DUCK FRF   0630      47                N/A     3/ 7
OREGON INLET NC  0642   42 49   60/  6/  9 1034.9F
HATTERAS NC      0648   44 51   30/  8/ 11 1034.0F
DIAMOND SHLS NC  0650   55 74   40/ 10/ 16 1034.2F   7/11   7/11
CAPE LOOKOUT NC  0700   45      20/ 13/ 16 1033.3F
$$



USA.gov is the U.S. government's official web portal to all federal, state and local government web resources and services.